User: anonymous   Login
Location: Unspecified
(0.0000°N, 0.0000°E)
Time: 03:26:44
(UTC+00:00)
Language:

NOSS 2-3 (C) - Orbit

View from above orbital plane
View from above orbital plane
View from above satellite
View from above satellite

Ground track
Ground track

The orbit data is extracted from the following two-line orbital elements,

1 23908U 96029C   17340.99431039 0.00000000  00000-0  00000-0 0    04
2 23908  63.3743 329.5740 0619000  13.5757 346.4243 13.40865394    03
Epoch (UTC): 06 December 2017 23:51:48
Eccentricity: 0.0619000
inclination: 63.3743°
perigee height: 643 km
apogee height: 1569 km
right ascension of ascending node: 329.5740°
argument of perigee: 13.5757°
revolutions per day: 13.40865394
mean anomaly at epoch: 346.4243°
orbit number at epoch: 0

The dashed part of the orbit path shows where the satellite is in the earth's shadow,  

DLR